Location: Dumpton Point
(51.3500°N, 1.4433°E)
Time: 04:58:40
(UTC+00:00)

Altair - Pass Details

Date: 30 September 2022
Orbit: 1501 x 1682 km, 47.2° (Epoch: 04 December)

Event Time Altitude Azimuth Distance (km) Brightness Sun altitude
Rises 05:46:00 0° 224° (SW) 4,789 9.7 -1.9°
Reaches altitude 10° 05:49:12 10° 218° (SW) 3,830 9.3 -1.4°
Maximum altitude 05:58:23 47° 149° (SSE) 2,097 8.6 0.0°
Drops below altitude 10° 06:07:49 10° 81° (E) 3,942 11.4 1.5°
Sets 06:11:09 0° 76° (ENE) 4,938 11.7 2.0°
